Date String (YYYY-MM-DD hh:mm:ss) UTC,Instrument flags,Ambient pressure (hPa),Sample flow (lpm),Bypass flow (lpm),Sample temperature (°C),Ambient temperature (°C),ASC tube jacket temperature (°C),LED temperature (°C),Box temperature (°C),Sample RH (%),Span deviation,Mass concentration (μg/m³),Mass concentration (μg/m³),Mass concentration (μg/m³)
DateTimeUTC,F1_M11,P_M11,Q1_M11,Q2_M11,T1_M11,T2_M11,T3_M11,T4_M11,T5_M11,U1_M11,ZSPAN_M11,X0_M11,X2_M11,X1_M11
2022-10-04 00:00:00,,0830.1,4.99,0.00,29.2,27.8,00.0,37.9,31.1,27.8,0000.0,0003.50,0002.36,0001.95
2022-10-04 00:01:00,,0830.1,5.00,0.00,29.2,27.8,00.0,37.9,31.1,27.7,0000.0,0003.37,0002.28,0001.90
2022-10-04 00:02:00,,0830.1,4.99,0.00,29.2,27.8,00.0,37.9,31.0,27.8,0000.0,0003.48,0002.28,0001.90
2022-10-04 00:03:00,,0830.1,4.98,0.00,29.2,27.7,00.0,37.9,31.0,27.8,0000.0,0003.46,0002.27,0001.90
2022-10-04 00:04:00,,0830.1,5.01,0.00,29.2,27.7,00.0,37.9,31.0,27.8,0000.0,0003.22,0002.18,0001.87
2022-10-04 00:05:00,,0830.3,5.00,0.00,29.2,27.7,00.0,37.9,31.0,27.6,0000.0,0003.27,0002.18,0001.86
2022-10-04 00:06:00,,0830.2,4.99,0.00,29.2,27.8,00.0,37.9,31.1,27.6,0000.0,0003.31,0002.20,0001.87
2022-10-04 00:07:00,,0830.2,5.01,0.00,29.2,27.8,00.0,37.9,31.1,27.6,0000.0,0003.35,0002.23,0001.87
2022-10-04 00:08:00,,0830.4,4.99,0.00,29.2,27.9,00.0,37.9,31.1,27.3,0000.0,0003.33,0002.22,0001.86
2022-10-04 00:09:00,,0830.4,5.00,0.00,29.3,28.0,00.0,38.0,31.1,27.5,0000.0,0003.52,0002.29,0001.86
2022-10-04 00:10:00,,0830.4,5.00,0.00,29.3,28.0,00.0,38.0,31.2,27.9,0000.0,0003.58,0002.29,0001.85
2022-10-04 00:11:00,,0830.4,5.00,0.00,29.3,28.1,00.0,38.0,31.2,28.2,0000.0,0003.66,0002.31,0001.84
2022-10-04 00:12:00,,0830.4,4.99,0.00,29.3,28.1,00.0,38.0,31.2,28.5,0000.0,0003.73,0002.35,0001.84
2022-10-04 00:13:00,,0830.4,5.00,0.00,29.3,28.2,00.0,38.0,31.2,28.2,0000.0,0003.66,0002.36,0001.84
2022-10-04 00:14:00,,0830.4,4.99,0.00,29.4,28.2,00.0,38.0,31.3,28.3,0000.0,0004.55,0002.39,0001.85
2022-10-04 00:15:00,,0830.4,5.01,0.00,29.4,28.2,00.0,38.1,31.3,28.1,0000.0,0004.94,0002.48,0001.87
2022-10-04 00:16:00,,0830.4,4.99,0.00,29.4,28.2,00.0,38.1,31.3,28.0,0000.0,0004.91,0002.50,0001.88
2022-10-04 00:17:00,,0830.3,5.01,0.00,29.4,28.1,00.0,38.1,31.3,27.2,0000.0,0004.89,0002.49,0001.88
2022-10-04 00:18:00,,0830.3,5.01,0.00,29.4,28.0,00.0,38.1,31.3,27.2,0000.0,0005.02,0002.50,0001.89
2022-10-04 00:19:00,,0830.3,4.98,0.00,29.4,27.9,00.0,38.1,31.2,27.1,0000.0,0005.08,0002.53,0001.91
2022-10-04 00:20:00,,0830.2,5.01,0.00,29.4,27.8,00.0,38.1,31.2,26.6,0000.0,0004.97,0002.51,0001.94
2022-10-04 00:21:00,,0830.1,5.01,0.00,29.4,27.8,00.0,38.1,31.2,26.7,0000.0,0004.88,0002.51,0001.97
2022-10-04 00:22:00,,0830.1,5.00,0.00,29.4,27.8,00.0,38.1,31.2,27.0,0000.0,0004.92,0002.52,0001.97
2022-10-04 00:23:00,,0830.2,4.99,0.00,29.4,27.7,00.0,38.1,31.2,27.2,0000.0,0004.85,0002.50,0001.97
2022-10-04 00:24:00,,0830.3,5.01,0.00,29.4,27.7,00.0,38.1,31.2,27.4,0000.0,0005.12,0002.53,0001.97
2022-10-04 00:25:00,,0830.3,5.00,0.00,29.4,27.8,00.0,38.1,31.2,27.6,0000.0,0004.37,0002.51,0001.98
2022-10-04 00:26:00,,0830.3,4.99,0.00,29.4,27.8,00.0,38.1,31.2,27.5,0000.0,0004.11,0002.48,0001.99
2022-10-04 00:27:00,,0830.3,5.01,0.00,29.3,27.7,00.0,38.1,31.1,27.6,0000.0,0004.43,0002.48,0002.00
2022-10-04 00:28:00,,0830.2,5.01,0.00,29.3,27.7,00.0,38.1,31.1,27.6,0000.0,0004.57,0002.53,0002.04
2022-10-04 00:29:00,,0830.2,4.99,0.00,29.3,27.7,00.0,38.1,31.1,27.7,0000.0,0004.53,0002.54,0002.05
2022-10-04 00:30:00,,0830.2,5.00,0.00,29.3,27.7,00.0,38.1,31.1,27.8,0000.0,0004.60,0002.54,0002.05
2022-10-04 00:31:00,,0830.3,5.00,0.00,29.3,27.7,00.0,38.1,31.1,27.8,0000.0,0005.15,0002.58,0002.05
2022-10-04 00:32:00,,0830.3,4.99,0.00,29.3,27.7,00.0,38.1,31.1,27.6,0000.0,0005.31,0002.64,0002.05
2022-10-04 00:33:00,,0830.3,5.00,0.00,29.3,27.8,00.0,38.1,31.1,27.6,0000.0,0005.32,0002.65,0002.05
2022-10-04 00:34:00,,0830.3,5.00,0.00,29.3,27.8,00.0,38.1,31.1,27.8,0000.0,0005.36,0002.66,0002.08
2022-10-04 00:35:00,,0830.3,4.98,0.00,29.3,27.8,00.0,38.1,31.1,28.0,0000.0,0005.11,0002.65,0002.10
2022-10-04 00:36:00,,0830.3,5.01,0.00,29.3,27.8,00.0,38.1,31.1,28.4,0000.0,0005.10,0002.68,0002.11
2022-10-04 00:37:00,,0830.2,5.00,0.00,29.3,27.7,00.0,38.1,31.1,28.5,0000.0,0005.03,0002.73,0002.13
2022-10-04 00:38:00,,0830.3,4.99,0.00,29.3,27.7,00.0,38.1,31.1,28.5,0000.0,0004.77,0002.77,0002.17
2022-10-04 00:39:00,,0830.3,5.01,0.00,29.3,27.6,00.0,38.1,31.0,28.4,0000.0,0004.58,0002.72,0002.17
2022-10-04 00:40:00,,0830.4,5.00,0.00,29.3,27.5,00.0,38.1,31.0,28.2,0000.0,0004.62,0002.75,0002.18
2022-10-04 00:41:00,,0830.4,4.99,0.00,29.3,27.6,00.0,38.1,31.0,28.1,0000.0,0004.65,0002.81,0002.21
2022-10-04 00:42:00,,0830.4,5.00,0.00,29.2,27.6,00.0,38.1,31.0,28.3,0000.0,0004.26,0002.84,0002.26
2022-10-04 00:43:00,,0830.4,5.01,0.00,29.2,27.5,00.0,38.1,31.0,28.4,0000.0,0004.39,0002.93,0002.32
2022-10-04 00:44:00,,0830.5,4.99,0.00,29.2,27.6,00.0,38.1,31.0,28.4,0000.0,0004.39,0002.98,0002.40
2022-10-04 00:45:00,,0830.4,5.00,0.00,29.2,27.6,00.0,38.1,31.0,28.4,0000.0,0004.41,0003.03,0002.46
2022-10-04 00:46:00,,0830.4,5.01,0.00,29.2,27.6,00.0,38.1,31.0,28.5,0000.0,0004.44,0003.07,0002.51
2022-10-04 00:47:00,,0830.4,5.01,0.00,29.2,27.6,00.0,38.1,31.0,28.8,0000.0,0004.44,0003.09,0002.55
2022-10-04 00:48:00,,0830.4,4.99,0.00,29.2,27.6,00.0,38.1,31.0,28.9,0000.0,0004.62,0003.14,0002.58
2022-10-04 00:49:00,,0830.4,4.99,0.00,29.2,27.6,00.0,38.1,31.0,28.2,0000.0,0004.60,0003.15,0002.60
2022-10-04 00:50:00,,0830.5,5.01,0.00,29.2,27.6,00.0,38.1,31.0,28.0,0000.0,0004.70,0003.19,0002.65
2022-10-04 00:51:00,,0830.4,4.98,0.00,29.2,27.6,00.0,38.1,31.0,27.6,0000.0,0004.79,0003.21,0002.70
2022-10-04 00:52:00,,0830.5,5.01,0.00,29.2,27.6,00.0,38.1,31.0,27.9,0000.0,0004.78,0003.23,0002.75
2022-10-04 00:53:00,,0830.5,4.99,0.00,29.2,27.7,00.0,38.1,31.0,27.7,0000.0,0004.73,0003.24,0002.78
2022-10-04 00:54:00,,0830.5,5.01,0.00,29.2,27.7,00.0,38.1,31.0,27.7,0000.0,0004.64,0003.22,0002.79
2022-10-04 00:55:00,,0830.6,5.01,0.00,29.2,27.7,00.0,38.1,31.0,28.0,0000.0,0004.60,0003.22,0002.80
2022-10-04 00:56:00,,0830.5,4.99,0.00,29.2,27.7,00.0,38.1,31.1,27.8,0000.0,0004.69,0003.23,0002.81
2022-10-04 00:57:00,,0830.5,5.00,0.00,29.3,27.8,00.0,38.0,31.1,27.8,0000.0,0004.68,0003.24,0002.82
2022-10-04 00:58:00,,0830.6,4.99,0.00,29.3,27.9,00.0,38.0,31.1,28.2,0000.0,0004.70,0003.25,0002.84
2022-10-04 00:59:00,,0830.6,5.00,0.00,29.3,28.0,00.0,38.1,31.1,28.3,0000.0,0004.59,0003.23,0002.86
